World > North America > United States > Mississippi > Bobo  

Bobo, MS Hourly Weather Updates

Feedback E-mail the Weather

Quick Clicks

Bobo, MS Weather Maps

°F °C°F °C
Bobo Weather Map
UTC Time: 5/19/2024, 17:11
Your Time:

Bobo, MS Regional Weather

Expires:202405191800;;490063
ASUS44 KJAN 191710
RWRMS 

MISSISSIPPI HOURLY WEATHER ROUNDUP
NATIONAL WEATHER SERVICE JACKSON MS
1200 PM CDT SUN MAY 19 2024

NOTE: "FAIR: INDICATES FEW OR NO CLOUDS BELOW 12,000 FEET WITH NO
SIGNIFICANT WEATHER AND/OR OBSTRUCTIONS TO VISIBILITY.


MSZ001>002-007>008-010>013-018>021-025>028-034>036-191800-
NORTHWEST MISSISSIPPI
  
CITY           SKY/WX    TMP DP  RH WIND       PRES   REMARKS
BATESVILLE     SUNNY     84  66  54 CALM      30.02S                  
CLARKSDALE       N/A     86  86 100 N8G15     30.02F HX 112           
GREENWOOD      SUNNY     85  66  53 N7        30.01F                  
GREENVILLE     SUNNY     88  69  53 N6        30.00F HX  92           
OLIVE BRANCH   MOSUNNY   82  64  54 E3        30.02F                  
OXFORD         MOSUNNY   82  64  54 E8G14     30.04F                  
TUNICA         MOSUNNY   84  72  68 VRB6      30.03S                  
WINONA         SUNNY     82  65  55 E5        30.02F                  
$$


SKY/WX - Weather  TMP - Temperature  DP - Dew Point  RH - Humidity
WIND - Wind Direction/Speed PRES - Barometric Pressure VSB - Visibility
WCI - Wind Chill Index E13G22 Wind - East Wind 13 mph/Gusts of 22 mph

Trending Headlines

Trending Entertainment Headlines

Bobo Radar Loop

Use the map search tool if you want to place a location marker on the radar map...

Bobo Quick Facts

National Two Day Weather Forecast


E-mail the Bobo Weather Forecast

Voice your opinion or tell us about page issues...